FENGYUN 1C DEB, 33676

Orbit data source: Space-Track

FENGYUN 1C DEB, 33676 is space debris in SSO originally from a launch on Mon, 10 May 1999 UTC launched from the Taiyaun Space Center, China (TSC). Fengyun 1C debris stems from the Chinese weather satellite Fengyun-1C, which was intentionally destroyed by a Chinese anti-satellite missile in 2007. This event dramatically increased the amount of space debris, with thousands of trackable fragments posing hazards to satellites and human spaceflight. The Fengyun 1C debris cloud has become a focal point in discussions about space sustainability and the need for international regulations to prevent the creation of new debris.

Loading next visibility...
Identifier
33676, 1999-025DFM
Orbit
SSO
Country
Flag of CNCN / PRC
Related business
Manufacturer
Unknown
Mission
Spacecraft
Bus & Motor
Unknown
Mass
Unknown
Launch date (UTC)
1999-05-10 (27 years ago)
Launch vehicle
Unknown
Launch site
Taiyaun Space Center, China (TSC)
Object type
Payload
Rocket body
Debris
Shape & HBR
Unknown shape, 0.1 m
Radar Cross Section
Small (<0.1 m²)

Expand to show TLE details & history
Last TLE update: 1 day ago

TLE from 1 day ago
0 FENGYUN 1C DEB
1 33676U 99025DFM 26208.33771449  .00000525  00000-0  15802-3 0  9997
2 33676  99.0718 249.9854 0204551 126.5175 235.5040 14.35773426685624
Epoch: 2026-07-27T08:06Z
TLE epoch observation values (Epoch: 2026-07-27T08:06:18.531Z)
Latitude
-0.00007°
Longitude
-176.61453°
Altitude
860.277 km
Speed
7.378 km/s
True Right ascension
16h 39m 56s
True Declination
0° 00' 00"
Sunlit
Object was in full shadow at epoch
Visualization orbit readout
Latitude
Unknown
Longitude
Unknown
Altitude
Unknown
Speed
Unknown
Apparent Right ascension
Unknown
Apparent Declination
Unknown
Sunlit
N/A
Visualization observer readout
Local Sidereal Time
02:14:25
Azimuth
Unknown
Elevation
Unknown
Doppler factor
Unknown
Orbital elements
Apogee altitude
915.86 km
Perigee altitude
623.442 km
Semi-major axis
7,147.788 km
Eccentricity
0.02046
Inclination
99.0718°
RAAN
249.9854°
Arg. of periapsis
126.5175°
True anomaly
233.60011°
Mean anomaly
235.504°
Eccentric anomaly
234.54928°
Mean motion
3.59158 °/min
Orbital period
100.23 mins
BSTAR
0.00015802
Loading maneuver chart data...
Computing Atmospheric mass density...

Documentation

Showing up to 5 results
|